TimeCET,TemperatureF,Dew PointF,Humidity,Sea Level PressureIn,VisibilityMPH,Wind Direction,Wind SpeedMPH,Gust SpeedMPH,PrecipitationIn,Events,Conditions,WindDirDegrees,DateUTC
12:00 AM,30.2,30.2,100,30.04,-9999.0,Calm,Calm,-,N/A,,Clear,0,2013-03-02 23:00:00
12:30 AM,30.2,30.2,100,30.04,-9999.0,Calm,Calm,-,N/A,,Clear,0,2013-03-02 23:30:00
1:00 AM,30.2,30.2,100,30.01,-9999.0,Calm,Calm,-,N/A,,Clear,0,2013-03-03 00:00:00
1:30 AM,30.2,30.2,100,30.01,-9999.0,Calm,Calm,-,N/A,,Clear,0,2013-03-03 00:30:00
2:00 AM,30.2,30.2,100,30.01,-9999.0,Calm,Calm,-,N/A,,Clear,0,2013-03-03 01:00:00
2:30 AM,30.2,30.2,100,30.01,-9999.0,Calm,Calm,-,N/A,,Clear,0,2013-03-03 01:30:00
3:00 AM,30.2,30.2,100,30.01,5.0,Calm,Calm,-,N/A,,Unknown,0,2013-03-03 02:00:00
3:30 AM,28.4,28.4,100,30.01,5.0,NE,1.2,-,N/A,,Unknown,50,2013-03-03 02:30:00
4:00 AM,28.4,28.4,100,29.98,5.0,Calm,Calm,-,N/A,,Unknown,0,2013-03-03 03:00:00
4:30 AM,28.4,28.4,100,29.98,4.3,Calm,Calm,-,N/A,,Unknown,0,2013-03-03 03:30:00
5:00 AM,28.4,28.4,100,29.98,4.3,Calm,Calm,-,N/A,,Unknown,0,2013-03-03 04:00:00
5:30 AM,28.4,28.4,100,29.98,5.0,Calm,Calm,-,N/A,,Unknown,0,2013-03-03 04:30:00
6:00 AM,28.4,28.4,100,29.98,5.0,Calm,Calm,-,N/A,,Unknown,0,2013-03-03 05:00:00
6:30 AM,28.4,28.4,100,29.98,5.0,Calm,Calm,-,N/A,,Unknown,0,2013-03-03 05:30:00
7:00 AM,28.4,28.4,100,29.98,-9999.0,Calm,Calm,-,N/A,,Clear,0,2013-03-03 06:00:00
7:30 AM,28.4,28.4,100,29.98,-9999.0,Calm,Calm,-,N/A,,Clear,0,2013-03-03 06:30:00
8:00 AM,28.4,28.4,100,29.98,4.3,Calm,Calm,-,N/A,,Unknown,0,2013-03-03 07:00:00
8:30 AM,28.4,28.4,100,29.98,3.7,Calm,Calm,-,N/A,,Unknown,0,2013-03-03 07:30:00
9:00 AM,30.2,30.2,100,29.98,3.7,Calm,Calm,-,N/A,,Unknown,0,2013-03-03 08:00:00
9:30 AM,32.0,32.0,100,29.98,5.0,NE,1.2,-,N/A,,Unknown,40,2013-03-03 08:30:00
10:00 AM,35.6,33.8,93,29.98,5.0,Calm,Calm,-,N/A,,Unknown,0,2013-03-03 09:00:00
10:30 AM,39.2,35.6,87,29.98,5.0,Calm,Calm,-,N/A,,Unknown,0,2013-03-03 09:30:00
11:00 AM,41.0,37.4,87,29.95,-9999.0,Calm,Calm,-,N/A,,Clear,0,2013-03-03 10:00:00
11:30 AM,44.6,37.4,76,29.95,-9999.0,Calm,Calm,-,N/A,,Clear,0,2013-03-03 10:30:00
12:00 PM,48.2,37.4,66,29.95,-9999.0,Calm,Calm,-,N/A,,Clear,0,2013-03-03 11:00:00
12:30 PM,51.8,39.2,62,29.95,-9999.0,North,1.2,-,N/A,,Clear,10,2013-03-03 11:30:00
1:00 PM,55.4,37.4,51,29.92,-9999.0,SSW,4.6,-,N/A,,Clear,210,2013-03-03 12:00:00
1:30 PM,55.4,33.8,44,29.92,-9999.0,SSE,10.4,-,N/A,,Clear,160,2013-03-03 12:30:00
2:00 PM,55.4,35.6,47,29.89,-9999.0,ESE,9.2,-,N/A,,Clear,120,2013-03-03 13:00:00
2:30 PM,53.6,35.6,51,29.89,-9999.0,ESE,11.5,-,N/A,,Clear,120,2013-03-03 13:30:00
3:00 PM,55.4,37.4,51,29.86,-9999.0,ESE,11.5,-,N/A,,Clear,120,2013-03-03 14:00:00
3:30 PM,55.4,33.8,44,29.86,-9999.0,ESE,10.4,-,N/A,,Clear,120,2013-03-03 14:30:00
4:00 PM,57.2,37.4,48,29.86,-9999.0,SE,9.2,-,N/A,,Clear,140,2013-03-03 15:00:00
4:30 PM,55.4,35.6,47,29.83,-9999.0,ESE,9.2,-,N/A,,Clear,120,2013-03-03 15:30:00
5:00 PM,57.2,35.6,44,29.83,-9999.0,SSE,6.9,-,N/A,,Clear,160,2013-03-03 16:00:00
5:30 PM,55.4,33.8,44,29.83,-9999.0,ESE,8.1,-,N/A,,Clear,120,2013-03-03 16:30:00
6:00 PM,53.6,35.6,51,29.83,-9999.0,ESE,8.1,-,N/A,,Clear,110,2013-03-03 17:00:00
7:00 PM,50.0,37.4,62,29.83,-9999.0,ENE,2.3,-,N/A,,Clear,70,2013-03-03 18:00:00
7:30 PM,46.4,37.4,71,29.86,-9999.0,NE,9.2,-,N/A,,Clear,40,2013-03-03 18:30:00
8:00 PM,48.2,37.4,66,29.86,-9999.0,ENE,5.8,-,N/A,,Clear,70,2013-03-03 19:00:00
8:30 PM,48.2,35.6,62,29.86,-9999.0,East,4.6,-,N/A,,Clear,100,2013-03-03 19:30:00
9:00 PM,48.2,35.6,62,29.86,-9999.0,Calm,Calm,-,N/A,,Clear,0,2013-03-03 20:00:00
9:30 PM,48.2,33.8,58,29.86,-9999.0,ESE,8.1,-,N/A,,Clear,120,2013-03-03 20:30:00
10:00 PM,48.2,35.6,62,29.83,-9999.0,East,4.6,-,N/A,,Clear,90,2013-03-03 21:00:00
10:30 PM,44.6,37.4,76,29.83,-9999.0,ENE,9.2,-,N/A,,Clear,70,2013-03-03 21:30:00
11:00 PM,44.6,35.6,71,29.83,-9999.0,East,3.5,-,N/A,,Clear,100,2013-03-03 22:00:00
11:30 PM,44.6,35.6,71,29.83,-9999.0,North,2.3,-,N/A,,Clear,360,2013-03-03 22:30:00